Change the Weather History Date:

Tuesday, October 11, 2011

  Actual Average Record
Temperature  
Mean Temperature 60 °F -  
Max Temperature 77 °F 67 °F 90 °F (1956)
Min Temperature 44 °F 40 °F 22 °F (1987)
Degree Days  
Heating Degree Days 4    
Growing Degree Days 10 (Base 50)    
Moisture  
Dew Point 50 °F    
Average Humidity 73    
Maximum Humidity 100    
Minimum Humidity 45    
Precipitation  
Precipitation 0.01 in - - ()
Sea Level Pressure  
Sea Level Pressure 29.82 in    
Wind  
Wind Speed 7 mph (SSE)    
Max Wind Speed 17 mph    
Max Gust Speed 24 mph    
Visibility 8 miles    
Events      
Averages and records for this station are not official NWS values.
T = Trace of Precipitation, MM = Missing Value Source: NWS Daily Summary

Daily Weather History Graph

Daily Weather History Graph

Search for Another Location

Airport or City:

Trip Planner

Search our weather history database for the weather conditions in past years. The results will help you decide how hot, cold, wet, or windy it might be!

Date:

Astronomy

Oct. 11, 2011 Rise Set
Actual Time 7:32 AM CDT 6:50 PM CDT
Civil Twilight 7:04 AM CDT 7:17 PM CDT
Nautical Twilight 6:32 AM CDT 7:50 PM CDT
Astronomical Twilight 5:59 AM CDT 8:22 PM CDT
Moon 6:21 PM CDT (10/11) 7:11 AM CDT (10/11)
Length of Visible Light 12h 13m
Length of Day
11h 17m
Full, 100% of the Moon is Illuminated
Oct 11
Full
Oct 11
Full
Oct 19
Last Quarter
Oct 26
New
Nov 2
First Quarter

Hourly Weather History & Observations

Time (CDT) Temp. Windchill Dew Point Humidity Pressure Visibility Wind Dir Wind Speed Gust Speed Precip Events Conditions
12:54 AM 48.9 °F - 46.9 °F 93% 29.91 in 10.0 mi SSE 6.9 mph - N/A   Clear
1:54 AM 51.1 °F - 48.0 °F 89% 29.90 in 10.0 mi South 5.8 mph - N/A   Clear
2:54 AM 48.0 °F - 46.0 °F 93% 29.90 in 10.0 mi SE 4.6 mph - N/A   Clear
3:54 AM 48.9 °F - 46.9 °F 93% 29.89 in 10.0 mi Calm Calm - N/A   Clear
5:54 AM 48.9 °F - 46.9 °F 93% 29.89 in 5.0 mi SSE 4.6 mph - N/A   Clear
6:54 AM 48.9 °F - 46.9 °F 93% 29.89 in 5.0 mi SE 6.9 mph - N/A   Clear
7:34 AM 44.6 °F 42.2 °F 44.6 °F 100% 29.89 in 2.5 mi SSE 4.6 mph - N/A   Clear
7:46 AM 44.6 °F 42.2 °F 44.6 °F 100% 29.89 in 0.8 mi SSE 4.6 mph - N/A   Clear
8:18 AM 46.4 °F 43.5 °F 46.4 °F 100% 29.89 in 1.8 mi SE 5.8 mph - N/A   Clear
8:31 AM 51.8 °F - 48.2 °F 88% 29.89 in 2.0 mi SE 5.8 mph - 0.01 in   Clear
8:54 AM 55.0 °F - 53.1 °F 93% 29.88 in 3.0 mi SSE 8.1 mph - 0.01 in   Clear
10:54 AM 64.9 °F - 55.9 °F 73% 29.85 in 8.0 mi SSE 11.5 mph - N/A   Scattered Clouds
11:54 AM 70.0 °F - 57.0 °F 63% 29.83 in 10.0 mi SSE 13.8 mph 19.6 mph N/A   Partly Cloudy
12:54 PM 72.0 °F - 55.0 °F 55% 29.82 in 10.0 mi SSE 13.8 mph - N/A   Scattered Clouds
1:54 PM 75.9 °F - 53.1 °F 45% 29.78 in 10.0 mi SSE 16.1 mph 20.7 mph N/A   Scattered Clouds
3:54 PM 77.0 °F - 55.9 °F 48% 29.73 in 10.0 mi SE 17.3 mph 24.2 mph N/A   Clear
4:54 PM 75.0 °F - 53.1 °F 46% 29.73 in 10.0 mi SSE 13.8 mph 21.9 mph N/A   Clear
5:54 PM 73.9 °F - 51.1 °F 45% 29.72 in 10.0 mi SSE 16.1 mph 24.2 mph N/A   Clear
6:54 PM 70.0 °F - 50.0 °F 49% 29.72 in 10.0 mi SSE 10.4 mph - N/A   Clear
7:54 PM 66.0 °F - 50.0 °F 56% 29.73 in 10.0 mi SE 8.1 mph - N/A   Scattered Clouds
8:54 PM 64.9 °F - 48.9 °F 56% 29.74 in 10.0 mi SE 8.1 mph - N/A   Mostly Cloudy
9:54 PM 64.0 °F - 50.0 °F 60% 29.74 in 10.0 mi SE 5.8 mph - 0.00 in   Overcast
10:54 PM 63.0 °F - 51.1 °F 65% 29.73 in 10.0 mi SE 5.8 mph - N/A   Overcast
11:54 PM 62.1 °F - 51.1 °F 67% 29.72 in 10.0 mi SE 3.5 mph - N/A   Overcast